When you browse on this site, cookies collect data to enhance your experience and personalize the content and advertising you see.
Visit our Privacy Policy to learn more. By continuing to use the site, you agree to this use of cookies and data.
  • In Switzerland
  • List of Countries
  • For 7 days
  • Water Temperature
  • Satellite Maps
  • Weather Map
  • Weather Widgets
  • user-avatar
    Login

    Hourly Weather Plavynyshche

    Today, 19 July, Friday

    Time Temperature Precipitation Wind Pressure Humidity
    00:00 +13°C° 0 mm 3 mps 746 mmHg 93%
    01:00 +13°C° 0 mm 3 mps 746 mmHg 93%
    02:00 +13°C° 0 mm 3 mps 746 mmHg 93%
    03:00 +13°C° 0 mm 3 mps 747 mmHg 93%
    04:00 +13°C° 0 mm 3 mps 747 mmHg 94%
    05:00 +13°C° 0 mm 3 mps 747 mmHg 94%
    06:00 +14°C° 0 mm 4 mps 747 mmHg 89%
    07:00 +17°C° 0 mm 4 mps 748 mmHg 83%
    08:00 +19°C° 0 mm 5 mps 748 mmHg 78%
    09:00 +20°C° 0.1 mm 5 mps 748 mmHg 74%
    10:00 +21°C° 0.1 mm 5 mps 748 mmHg 70%
    11:00 +22°C° 0.1 mm 5 mps 748 mmHg 66%
    12:00 +23°C° 0.3 mm 5 mps 748 mmHg 65%
    13:00 +23°C° 0.3 mm 4 mps 748 mmHg 63%
    14:00 +23°C° 0.3 mm 4 mps 748 mmHg 62%
    15:00 +23°C° 0.2 mm 4 mps 748 mmHg 63%
    16:00 +23°C° 0.2 mm 4 mps 749 mmHg 64%
    17:00 +24°C° 0.2 mm 3 mps 749 mmHg 65%
    18:00 +21°C° 0 mm 3 mps 749 mmHg 70%
    19:00 +20°C° 0 mm 3 mps 749 mmHg 75%
    20:00 +18°C° 0 mm 2 mps 749 mmHg 80%
    21:00 +18°C° 0 mm 2 mps 749 mmHg 82%
    22:00 +17°C° 0 mm 2 mps 750 mmHg 85%
    23:00 +17°C° 0 mm 2 mps 750 mmHg 87%

    Tomorrow, 20 July, Saturday

    Time Temperature Precipitation Wind Pressure Humidity
    00:00 +16°C° 0 mm 2 mps 750 mmHg 88%
    01:00 +16°C° 0 mm 2 mps 750 mmHg 89%
    02:00 +16°C° 0 mm 2 mps 750 mmHg 90%
    03:00 +16°C° 0 mm 2 mps 750 mmHg 91%
    04:00 +16°C° 0 mm 2 mps 750 mmHg 91%
    05:00 +16°C° 0 mm 2 mps 750 mmHg 91%
    06:00 +18°C° 0 mm 3 mps 751 mmHg 86%
    07:00 +19°C° 0 mm 3 mps 751 mmHg 80%
    08:00 +21°C° 0 mm 3 mps 751 mmHg 75%
    09:00 +22°C° 0.1 mm 3 mps 751 mmHg 70%
    10:00 +24°C° 0.1 mm 3 mps 752 mmHg 66%
    11:00 +26°C° 0.1 mm 4 mps 752 mmHg 61%
    12:00 +26°C° 0.2 mm 4 mps 752 mmHg 59%
    13:00 +26°C° 0.2 mm 4 mps 752 mmHg 57%
    14:00 +27°C° 0.2 mm 4 mps 751 mmHg 55%
    15:00 +27°C° 0.1 mm 3 mps 752 mmHg 58%
    16:00 +26°C° 0.1 mm 3 mps 752 mmHg 60%
    17:00 +26°C° 0.1 mm 3 mps 752 mmHg 63%
    18:00 +24°C° 0.1 mm 2 mps 752 mmHg 67%
    19:00 +23°C° 0.1 mm 2 mps 752 mmHg 71%
    20:00 +21°C° 0.1 mm 1 mps 752 mmHg 76%
    21:00 +20°C° 0 mm 1 mps 752 mmHg 77%
    22:00 +20°C° 0 mm 1 mps 752 mmHg 78%
    23:00 +17°C° 0 mm 0 mps 752 mmHg 80%

    Day after tomorrow, 21 July, Sunday

    Time Temperature Precipitation Wind Pressure Humidity
    00:00 +19°C° 0 mm 1 mps 752 mmHg 80%
    01:00 +19°C° 0 mm 1 mps 752 mmHg 80%
    02:00 +18°C° 0 mm 1 mps 752 mmHg 80%
    03:00 +19°C° 0 mm 1 mps 752 mmHg 80%
    04:00 +19°C° 0 mm 1 mps 752 mmHg 81%
    05:00 +19°C° 0 mm 1 mps 752 mmHg 81%
    06:00 +21°C° 0 mm 1 mps 752 mmHg 76%
    07:00 +22°C° 0 mm 1 mps 752 mmHg 71%
    08:00 +24°C° 0 mm 1 mps 752 mmHg 66%
    09:00 +25°C° 0.4 mm 1 mps 752 mmHg 63%
    10:00 +26°C° 0.4 mm 1 mps 752 mmHg 59%
    11:00 +25°C° 0.4 mm 0 mps 752 mmHg 55%
    12:00 +25°C° 0.2 mm 0 mps 752 mmHg 54%
    13:00 +26°C° 0.2 mm 0 mps 751 mmHg 53%
    14:00 +26°C° 0.2 mm 0 mps 751 mmHg 51%
    15:00 +26°C° 0 mm 0 mps 751 mmHg 55%
    16:00 +27°C° 0 mm 1 mps 751 mmHg 58%
    17:00 +27°C° 0 mm 1 mps 751 mmHg 61%
    18:00 +25°C° 0 mm 1 mps 751 mmHg 64%
    19:00 +24°C° 0 mm 1 mps 751 mmHg 67%
    20:00 +20°C° 0 mm 0 mps 751 mmHg 71%
    21:00 +20°C° 0 mm 0 mps 751 mmHg 73%
    22:00 +19°C° 0 mm 0 mps 751 mmHg 75%
    23:00 +18°C° 0 mm 0 mps 751 mmHg 78%

    22 July, Monday

    Time Temperature Precipitation Wind Pressure Humidity
    00:00 +18°C° 0 mm 0 mps 751 mmHg 79%
    01:00 +20°C° 0 mm 1 mps 750 mmHg 80%
    02:00 +20°C° 0 mm 1 mps 750 mmHg 81%
    03:00 +20°C° 0 mm 1 mps 750 mmHg 82%
    04:00 +19°C° 0 mm 2 mps 750 mmHg 84%
    05:00 +18°C° 0 mm 2 mps 750 mmHg 85%
    06:00 +20°C° 0 mm 2 mps 750 mmHg 81%
    07:00 +22°C° 0 mm 3 mps 749 mmHg 77%
    08:00 +24°C° 0 mm 3 mps 749 mmHg 74%
    09:00 +25°C° 1.1 mm 3 mps 749 mmHg 74%
    10:00 +25°C° 1.1 mm 3 mps 749 mmHg 75%
    11:00 +25°C° 1.1 mm 3 mps 748 mmHg 76%
    12:00 +26°C° 1.7 mm 4 mps 748 mmHg 75%
    13:00 +26°C° 1.7 mm 5 mps 748 mmHg 74%
    14:00 +26°C° 1.7 mm 5 mps 747 mmHg 73%
    15:00 +26°C° 0.5 mm 5 mps 747 mmHg 73%
    16:00 +26°C° 0.5 mm 5 mps 747 mmHg 73%
    17:00 +25°C° 0.5 mm 5 mps 747 mmHg 73%
    18:00 +23°C° 0 mm 5 mps 747 mmHg 78%
    19:00 +21°C° 0 mm 4 mps 746 mmHg 83%
    20:00 +19°C° 0 mm 3 mps 746 mmHg 87%
    21:00 +19°C° 0 mm 3 mps 746 mmHg 87%
    22:00 +19°C° 0 mm 3 mps 746 mmHg 87%
    23:00 +18°C° 0 mm 3 mps 746 mmHg 87%

    23 July, Tuesday

    Time Temperature Precipitation Wind Pressure Humidity
    00:00 +18°C° 0 mm 4 mps 746 mmHg 91%
    01:00 +18°C° 0 mm 4 mps 746 mmHg 94%
    02:00 +17°C° 0 mm 4 mps 745 mmHg 97%
    03:00 +17°C° 0 mm 4 mps 745 mmHg 96%
    04:00 +17°C° 0 mm 4 mps 745 mmHg 95%
    05:00 +17°C° 0 mm 4 mps 745 mmHg 94%
    06:00 +17°C° 0 mm 4 mps 745 mmHg 92%
    07:00 +18°C° 0 mm 4 mps 745 mmHg 89%
    08:00 +19°C° 0 mm 5 mps 745 mmHg 87%
    09:00 +19°C° 0 mm 5 mps 745 mmHg 84%
    10:00 +20°C° 0 mm 5 mps 745 mmHg 81%
    11:00 +20°C° 0 mm 5 mps 745 mmHg 77%
    12:00 +21°C° 0.1 mm 5 mps 745 mmHg 75%
    13:00 +22°C° 0.1 mm 5 mps 745 mmHg 73%
    14:00 +23°C° 0.1 mm 5 mps 744 mmHg 71%
    15:00 +22°C° 0.2 mm 5 mps 744 mmHg 73%
    16:00 +22°C° 0.2 mm 5 mps 744 mmHg 76%
    17:00 +22°C° 0.2 mm 4 mps 744 mmHg 78%
    18:00 +20°C° 0.1 mm 4 mps 744 mmHg 83%
    19:00 +19°C° 0.1 mm 3 mps 744 mmHg 87%
    20:00 +18°C° 0.1 mm 2 mps 744 mmHg 92%
    21:00 +17°C° 0 mm 2 mps 744 mmHg 93%
    22:00 +17°C° 0 mm 2 mps 744 mmHg 95%
    23:00 +16°C° 0 mm 1 mps 744 mmHg 96%

    24 July, Wednesday

    Time Temperature Precipitation Wind Pressure Humidity
    00:00 +15°C° 0 mm 1 mps 744 mmHg 96%
    01:00 +14°C° 0 mm 0 mps 744 mmHg 96%
    02:00 +13°C° 0 mm 0 mps 743 mmHg 97%
    03:00 +14°C° 0 mm 0 mps 743 mmHg 97%
    04:00 +15°C° 0 mm 1 mps 743 mmHg 97%
    05:00 +15°C° 0 mm 1 mps 743 mmHg 97%
    06:00 +16°C° 0 mm 1 mps 744 mmHg 94%
    07:00 +18°C° 0 mm 2 mps 744 mmHg 90%
    08:00 +19°C° 0 mm 2 mps 744 mmHg 87%
    09:00 +20°C° 0.6 mm 2 mps 744 mmHg 84%
    10:00 +20°C° 0.6 mm 3 mps 744 mmHg 82%
    11:00 +21°C° 0.6 mm 3 mps 744 mmHg 79%
    12:00 +21°C° 0.6 mm 4 mps 744 mmHg 79%
    13:00 +22°C° 0.6 mm 4 mps 744 mmHg 79%
    14:00 +22°C° 0.6 mm 5 mps 744 mmHg 78%
    15:00 +21°C° 0.2 mm 5 mps 744 mmHg 79%
    16:00 +21°C° 0.2 mm 5 mps 744 mmHg 80%
    17:00 +21°C° 0.2 mm 6 mps 744 mmHg 81%
    18:00 +20°C° 0.4 mm 5 mps 744 mmHg 85%
    19:00 +19°C° 0.4 mm 5 mps 744 mmHg 89%
    20:00 +17°C° 0.4 mm 5 mps 744 mmHg 92%
    21:00 +17°C° 0.3 mm 5 mps 744 mmHg 93%
    22:00 +16°C° 0.3 mm 5 mps 744 mmHg 93%
    23:00 +17°C° 0.3 mm 4 mps 744 mmHg 94%
    Show more